Location: Gradaro
(45.0833°N, 10.8833°E)
Time: 09:29:35
(UTC+00:00)

Nadezhda 3 Rocket - Pass Details

Date: 29 November 2020
Orbit: 956 x 1000 km, 82.9° (Epoch: 23 January)

Event Time Altitude Azimuth Distance (km) Brightness Sun altitude
Rises 04:41:34 0° 354° (N) 3,716 6.9 -19.1°
Reaches altitude 10° 04:44:09 10° 357° (N) 2,757 6.2 -18.6°
Maximum altitude 04:50:26 64° 79° (E) 1,079 4.4 -17.5°
Drops below altitude 10° 04:56:36 10° 161° (SSE) 2,708 6.8 -16.5°
Sets 04:59:06 0° 164° (SSE) 3,645 7.4 -16.1°
